Precipitable_Water
1.46 1.44 1.50 1.51 1.54 1.53 1.54 1.54 1.55 1.57 1.63 1.67 1.67 1.70 1.69 1.66 1.69 1.68 1.73 1.67 1.75 1.77 1.68 1.63 1.70 1.73 1.75 1.81 1.76 1.78 1.78 1.76 1.75 1.77 1.73 1.70 1.61 1.56 1.57 1.65 1.63 1.55 1.54 1.53 1.59 1.59 1.57 1.56 1.56 1.55 1.56 1.52 1.54 1.56 1.55 1.69 1.76 1.73 1.70 1.73 1.69 1.76 1.70 1.58 1.44 1.43 1.59 1.78 1.69 1.76 1.85 1.80 1.79 1.82 1.77 1.71 1.49 1.49 1.37 1.49 1.38 1.47 1.59 1.59 1.62
1.49 1.46 1.48 1.52 1.50 1.53 1.54 1.55 1.53 1.55 1.54 1.63 1.64 1.70 1.72 1.68 1.71 1.72 1.71 1.73 1.73 1.75 1.75 1.73 1.71 1.71 1.69 1.68 1.73 1.79 1.83 1.76 1.75 1.72 1.69 1.66 1.65 1.67 1.68 1.60 1.54 1.55 1.48 1.43 1.51 1.55 1.52 1.47 1.49 1.57 1.64 1.60 1.56 1.57 1.61 1.61 1.61 1.71 1.73 1.62 1.60 1.67 1.84 1.65 1.64 1.58 1.49 1.61 1.70 1.78 1.78 1.85 1.69 1.91 1.84 1.74 1.63 1.43 1.41 1.42 1.41 1.44 1.40 1.55 1.63
1.51 1.53 1.53 1.54 1.52 1.55 1.56 1.58 1.55 1.51 1.52 1.56 1.62 1.64 1.69 1.73 1.73 1.71 1.71 1.79 1.81 1.75 1.77 1.73 1.75 1.76 1.69 1.74 1.78 1.75 1.83 1.81 1.79 1.75 1.74 1.73 1.68 1.65 1.69 1.72 1.67 1.63 1.62 1.62 1.59 1.63 1.60 1.56 1.56 1.61 1.64 1.60 1.66 1.62 1.64 1.71 1.76 1.60 1.56 1.61 1.61 1.62 1.67 1.75 1.66 1.50 1.57 1.61 1.77 1.75 1.80 1.86 1.86 1.88 1.89 1.80 1.66 1.46 1.44 1.44 1.40 1.37 1.38 1.51 1.79
1.52 1.51 1.52 1.52 1.55 1.55 1.57 1.59 1.58 1.55 1.50 1.54 1.61 1.67 1.72 1.75 1.76 1.73 1.71 1.76 1.81 1.84 1.79 1.79 1.80 1.80 1.73 1.75 1.78 1.75 1.76 1.77 1.75 1.80 1.78 1.74 1.74 1.74 1.67 1.65 1.68 1.66 1.63 1.64 1.64 1.64 1.62 1.59 1.59 1.62 1.61 1.55 1.53 1.53 1.57 1.62 1.61 1.60 1.59 1.64 1.64 1.73 1.83 1.80 1.91 1.82 1.76 1.66 1.67 1.74 1.90 1.86 1.86 1.96 1.96 1.85 1.77 1.57 1.45 1.46 1.50 1.40 1.41 1.45 1.76
1.56 1.54 1.52 1.52 1.54 1.53 1.53 1.55 1.55 1.57 1.57 1.57 1.59 1.67 1.70 1.74 1.81 1.76 1.77 1.73 1.76 1.83 1.84 1.80 1.83 1.83 1.73 1.73 1.73 1.65 1.73 1.74 1.74 1.74 1.80 1.82 1.81 1.78 1.78 1.76 1.75 1.74 1.75 1.78 1.73 1.68 1.66 1.64 1.63 1.58 1.56 1.51 1.55 1.56 1.62 1.62 1.63 1.62 1.59 1.61 1.62 1.71 1.81 1.85 1.90 1.74 1.62 1.57 1.54 1.62 1.68 1.78 1.85 1.87 1.94 1.84 1.82 1.71 1.60 1.62 1.55 1.46 1.48 1.50 1.72
1.61 1.60 1.58 1.54 1.54 1.54 1.53 1.54 1.52 1.56 1.58 1.61 1.63 1.66 1.69 1.68 1.73 1.79 1.76 1.74 1.73 1.76 1.82 1.80 1.77 1.82 1.76 1.75 1.79 1.84 1.71 1.76 1.79 1.73 1.73 1.87 1.82 1.82 1.82 1.88 1.89 1.97 1.90 1.91 1.88 1.94 1.79 1.90 1.84 1.75 1.69 1.62 1.58 1.60 1.62 1.57 1.58 1.60 1.65 1.67 1.73 1.70 1.67 1.70 1.80 1.76 1.74 1.72 1.72 1.67 1.75 1.70 1.75 1.81 1.93 1.98 1.87 1.72 1.69 1.64 1.61 1.64 1.60 1.51 1.58
1.59 1.60 1.63 1.58 1.56 1.54 1.57 1.56 1.57 1.55 1.56 1.60 1.63 1.65 1.68 1.70 1.67 1.71 1.75 1.72 1.72 1.68 1.73 1.75 1.80 1.76 1.76 1.71 1.72 1.76 1.78 1.77 1.78 1.87 1.80 1.66 1.79 1.84 1.83 1.69 1.65 1.67 1.60 1.63 1.61 1.75 1.88 1.84 1.87 1.93 1.84 1.71 1.64 1.59 1.58 1.59 1.61 1.61 1.63 1.65 1.71 1.72 1.66 1.71 1.72 1.71 1.69 1.68 1.69 1.71 1.69 1.77 1.76 1.73 1.94 2.05 1.95 1.86 1.74 1.70 1.72 1.81 1.66 1.61 1.55
1.58 1.58 1.60 1.59 1.56 1.60 1.60 1.63 1.65 1.64 1.65 1.64 1.62 1.58 1.61 1.67 1.68 1.66 1.72 1.71 1.69 1.69 1.63 1.69 1.75 1.75 1.75 1.76 1.75 1.80 1.82 1.79 1.78 1.78 1.91 1.84 1.67 1.66 1.75 1.75 1.67 1.67 1.75 1.75 1.76 1.80 1.83 1.86 1.82 1.85 1.90 1.96 1.80 1.71 1.75 1.68 1.66 1.71 1.69 1.61 1.58 1.63 1.64 1.69 1.67 1.59 1.56 1.52 1.48 1.54 1.63 1.64 1.71 1.80 1.87 1.93 1.78 1.73 1.84 1.76 1.60 1.76 1.82 1.67 1.69
1.59 1.61 1.62 1.62 1.59 1.64 1.68 1.70 1.74 1.74 1.75 1.77 1.72 1.69 1.60 1.61 1.69 1.69 1.69 1.71 1.74 1.72 1.68 1.65 1.69 1.67 1.73 1.73 1.78 1.82 1.78 1.86 1.87 1.82 1.77 1.77 1.78 1.75 1.72 1.59 1.64 1.70 1.67 1.71 1.78 1.74 1.68 1.76 1.85 1.82 1.76 1.93 1.84 1.68 1.61 1.53 1.41 1.34 1.42 1.48 1.56 1.64 1.54 1.60 1.62 1.60 1.57 1.56 1.54 1.59 1.60 1.63 1.69 1.71 1.66 1.61 1.56 1.61 1.82 1.90 1.79 1.89 2.01 1.91 1.81
1.63 1.64 1.66 1.68 1.64 1.69 1.75 1.70 1.74 1.82 1.86 1.85 1.80 1.77 1.75 1.65 1.61 1.70 1.73 1.71 1.75 1.77 1.73 1.68 1.64 1.66 1.70 1.72 1.71 1.75 1.91 1.84 1.83 1.83 1.87 1.94 1.84 1.80 1.80 1.74 1.72 1.68 1.64 1.62 1.63 1.67 1.67 1.75 1.73 1.73 1.84 1.90 1.82 1.75 1.76 1.72 1.66 1.56 1.49 1.51 1.54 1.56 1.57 1.63 1.68 1.71 1.71 1.69 1.73 1.76 1.68 1.66 1.70 1.79 1.71 1.65 1.67 1.76 1.81 1.91 1.82 1.85 1.92 1.94 1.88
1.62 1.64 1.65 1.70 1.73 1.78 1.78 1.76 1.78 1.80 1.72 1.68 1.65 1.66 1.61 1.69 1.71 1.69 1.73 1.72 1.69 1.72 1.70 1.68 1.64 1.66 1.69 1.71 1.76 1.87 1.87 1.81 1.77 1.72 1.75 1.80 1.72 1.64 1.61 1.61 1.65 1.62 1.66 1.75 1.74 1.74 1.75 1.75 1.72 1.75 1.81 1.86 1.83 1.77 1.82 1.90 1.84 1.75 1.70 1.68 1.69 1.67 1.64 1.65 1.70 1.77 1.72 1.70 1.77 1.78 1.73 1.70 1.72 1.74 1.73 1.81 1.79 1.68 1.71 1.87 1.87 1.80 1.72 1.73 1.65
1.63 1.67 1.73 1.78 1.79 1.82 1.79 1.81 1.80 1.75 1.74 1.70 1.70 1.69 1.70 1.68 1.67 1.74 1.72 1.74 1.79 1.71 1.69 1.65 1.68 1.72 1.72 1.72 1.85 1.99 1.95 1.92 1.87 1.82 1.75 1.67 1.61 1.55 1.52 1.47 1.48 1.51 1.56 1.60 1.69 1.74 1.76 1.70 1.64 1.75 1.90 1.98 1.82 1.75 1.78 1.88 1.92 1.83 1.75 1.74 1.72 1.72 1.75 1.74 1.73 1.75 1.78 1.76 1.77 1.83 1.79 1.75 1.76 1.82 1.86 1.92 1.90 1.88 1.86 1.79 1.79 1.79 1.73 1.72 1.78
1.68 1.70 1.77 1.81 1.87 1.84 1.78 1.77 1.76 1.77 1.78 1.78 1.78 1.76 1.71 1.66 1.67 1.69 1.72 1.81 1.79 1.68 1.68 1.68 1.71 1.74 1.76 1.78 1.84 1.85 1.93 2.05 1.92 1.77 1.72 1.68 1.60 1.55 1.51 1.52 1.51 1.62 1.65 1.57 1.54 1.66 1.84 1.79 1.81 1.93 1.95 1.93 1.94 1.99 1.99 1.92 1.96 1.95 1.89 1.88 1.83 1.79 1.78 1.83 1.88 1.89 1.95 1.94 1.87 1.85 1.88 1.84 1.77 1.80 1.89 1.92 2.04 1.93 1.96 1.82 1.72 1.67 1.71 1.76 1.75
1.74 1.73 1.76 1.77 1.92 1.91 1.84 1.78 1.76 1.78 1.82 1.80 1.79 1.77 1.74 1.71 1.71 1.72 1.76 1.76 1.81 1.88 1.74 1.68 1.70 1.65 1.63 1.61 1.58 1.58 1.62 1.84 1.87 1.75 1.67 1.60 1.56 1.56 1.56 1.55 1.55 1.53 1.51 1.62 1.72 1.73 1.73 1.64 1.57 1.55 1.67 1.88 1.93 1.91 1.92 1.96 2.02 1.90 1.76 1.79 1.99 2.07 2.05 1.97 1.97 2.01 2.00 1.94 1.90 1.84 1.98 1.95 1.83 1.88 1.98 2.00 1.89 1.88 1.93 1.88 1.86 1.71 1.69 1.74 1.89
1.77 1.80 1.81 1.80 1.87 1.92 1.88 1.79 1.77 1.83 1.85 1.85 1.82 1.80 1.86 1.91 1.83 1.80 1.80 1.81 1.84 1.89 1.86 1.79 1.71 1.65 1.67 1.68 1.61 1.50 1.62 1.77 1.76 1.68 1.64 1.60 1.60 1.59 1.61 1.62 1.61 1.62 1.67 1.73 1.80 1.77 1.78 1.71 1.64 1.60 1.64 1.76 1.82 1.85 1.88 1.84 1.83 1.79 1.78 1.81 1.84 1.92 1.95 1.95 2.02 2.09 2.09 2.06 2.05 2.00 2.06 2.05 2.00 2.02 2.06 2.09 2.06 2.06 2.07 2.03 1.99 1.93 1.91 1.93 1.89
1.82 1.84 1.82 1.84 1.84 1.93 1.91 1.86 1.87 1.90 1.89 1.90 1.87 1.82 1.85 1.97 1.97 1.95 1.97 1.94 1.99 2.01 1.92 1.89 1.78 1.76 1.82 1.80 1.62 1.59 1.71 1.69 1.64 1.62 1.62 1.61 1.63 1.67 1.69 1.70 1.70 1.75 1.81 1.86 1.89 1.90 1.90 1.87 1.80 1.78 1.83 1.91 1.90 1.87 1.85 1.81 1.73 1.69 1.71 1.75 1.76 1.75 1.78 1.90 1.92 2.05 2.13 2.16 2.18 2.24 2.20 2.18 2.12 2.10 2.13 2.16 2.15 2.17 2.15 2.10 2.06 2.02 1.95 1.86 1.76
1.83 1.83 1.86 1.91 1.93 1.96 1.98 1.96 1.98 1.99 1.98 1.96 1.95 1.97 1.98 1.93 2.02 2.09 2.05 2.11 2.00 1.91 1.99 1.99 1.94 1.88 1.87 1.88 1.74 1.62 1.68 1.70 1.66 1.64 1.64 1.63 1.67 1.74 1.76 1.75 1.76 1.78 1.80 1.86 1.88 1.93 1.97 1.98 1.96 1.93 1.95 1.88 1.88 1.88 1.88 1.84 1.77 1.72 1.69 1.65 1.66 1.66 1.71 1.96 1.96 2.00 2.04 2.06 2.12 2.20 2.20 2.20 2.17 2.14 2.13 2.17 2.18 2.21 2.13 1.97 1.88 1.92 1.82 1.73 1.80
1.84 1.87 1.91 1.95 1.99 2.04 2.05 2.04 1.96 2.00 2.01 1.96 1.95 2.00 2.04 2.05 2.04 2.04 2.06 2.07 2.03 2.10 2.06 1.98 1.99 1.98 1.89 1.88 1.87 1.74 1.70 1.77 1.75 1.66 1.63 1.66 1.69 1.75 1.77 1.74 1.73 1.75 1.77 1.84 1.88 1.89 1.94 1.98 1.95 1.94 1.89 1.87 1.86 1.88 1.84 1.79 1.71 1.68 1.65 1.61 1.59 1.61 1.71 1.87 1.92 2.01 2.02 2.03 2.02 2.03 2.13 2.20 2.18 2.17 2.14 2.14 2.20 2.23 2.09 1.87 1.95 1.95 1.84 1.85 1.85
1.87 1.91 1.96 2.03 2.05 2.05 2.05 2.06 2.03 1.99 1.96 1.99 2.01 2.01 2.01 2.01 2.07 2.11 2.08 2.09 2.11 2.13 2.12 2.03 2.01 2.03 2.03 1.96 1.89 1.79 1.73 1.75 1.74 1.68 1.57 1.58 1.66 1.68 1.63 1.62 1.57 1.59 1.64 1.67 1.75 1.82 1.92 1.94 1.90 1.86 1.83 1.78 1.76 1.76 1.77 1.78 1.77 1.76 1.74 1.69 1.65 1.64 1.72 1.77 1.78 1.81 1.90 1.93 1.95 2.00 2.00 2.01 2.02 2.07 2.13 2.11 2.12 2.20 2.15 2.03 2.05 1.98 1.83 1.79 1.88
1.92 1.96 2.01 2.06 2.10 2.13 2.14 2.12 2.10 2.07 2.05 2.05 2.07 2.07 2.10 2.08 2.07 2.07 2.07 2.09 2.11 2.11 2.12 2.04 2.00 2.01 2.07 2.00 1.93 1.88 1.84 1.77 1.72 1.63 1.55 1.45 1.46 1.52 1.49 1.45 1.45 1.45 1.52 1.57 1.58 1.63 1.71 1.79 1.78 1.69 1.66 1.63 1.64 1.66 1.70 1.76 1.79 1.81 1.81 1.76 1.72 1.71 1.82 1.80 1.80 1.82 1.82 1.87 1.92 1.96 1.94 2.00 2.04 2.07 2.12 2.14 2.13 2.18 2.19 2.17 2.14 2.04 1.92 1.88 1.84
1.88 1.92 1.96 2.01 2.03 2.06 2.09 2.07 2.04 2.08 2.10 2.13 2.08 2.07 2.06 2.07 2.07 2.06 2.05 2.07 2.08 2.08 2.05 2.04 2.03 2.04 2.06 2.04 1.99 1.96 1.90 1.78 1.68 1.61 1.50 1.43 1.40 1.42 1.46 1.44 1.41 1.40 1.45 1.52 1.49 1.48 1.50 1.53 1.54 1.61 1.57 1.57 1.60 1.60 1.64 1.70 1.76 1.81 1.84 1.80 1.80 1.81 1.82 1.76 1.78 1.80 1.77 1.79 1.81 1.83 1.87 1.91 1.93 1.99 2.09 2.13 2.14 2.22 2.22 2.17 2.15 2.10 1.96 1.82 1.73
1.91 1.95 1.96 1.97 1.99 2.05 2.05 2.03 2.06 2.13 2.16 2.14 2.11 2.12 2.17 2.15 2.10 2.08 2.08 2.09 2.05 2.02 2.01 2.01 2.01 1.99 1.99 1.96 1.87 1.78 1.74 1.73 1.69 1.59 1.52 1.46 1.44 1.41 1.43 1.46 1.44 1.42 1.46 1.47 1.43 1.40 1.40 1.42 1.46 1.51 1.49 1.54 1.58 1.56 1.56 1.58 1.67 1.74 1.78 1.79 1.79 1.75 1.71 1.73 1.75 1.74 1.73 1.72 1.73 1.76 1.80 1.85 1.90 1.97 2.01 2.09 2.13 2.17 2.14 2.10 2.05 2.01 2.01 1.91 1.81
1.86 1.90 1.91 1.91 1.88 1.86 1.89 1.86 1.84 1.90 1.90 1.91 1.93 1.88 1.93 1.97 2.02 1.97 1.91 1.89 1.95 1.92 1.88 1.87 1.83 1.78 1.78 1.79 1.78 1.77 1.74 1.71 1.69 1.69 1.65 1.59 1.55 1.53 1.47 1.43 1.36 1.36 1.33 1.27 1.29 1.34 1.39 1.33 1.29 1.30 1.49 1.56 1.54 1.51 1.49 1.48 1.46 1.50 1.52 1.57 1.65 1.68 1.69 1.69 1.69 1.67 1.66 1.67 1.68 1.69 1.74 1.80 1.84 1.92 2.03 2.10 2.16 2.14 2.06 2.03 2.00 1.96 1.93 1.93 1.91
1.80 1.83 1.83 1.81 1.80 1.80 1.82 1.84 1.87 1.86 1.85 1.86 1.85 1.83 1.82 1.81 1.81 1.79 1.77 1.75 1.74 1.73 1.74 1.72 1.69 1.68 1.68 1.74 1.77 1.78 1.80 1.80 1.77 1.75 1.69 1.57 1.48 1.41 1.32 1.26 1.18 1.15 1.08 1.10 1.19 1.24 1.20 1.08 1.09 1.31 1.41 1.44 1.43 1.43 1.45 1.42 1.33 1.29 1.33 1.43 1.51 1.57 1.63 1.61 1.60 1.60 1.59 1.60 1.60 1.60 1.65 1.74 1.83 1.94 2.02 2.05 2.07 2.06 2.03 1.99 1.96 1.94 1.89 1.87 1.87
1.67 1.66 1.68 1.70 1.71 1.73 1.77 1.79 1.81 1.81 1.82 1.81 1.77 1.77 1.77 1.76 1.72 1.73 1.71 1.72 1.70 1.64 1.65 1.70 1.70 1.73 1.74 1.71 1.71 1.68 1.64 1.60 1.64 1.61 1.43 1.27 1.17 1.12 1.05 1.01 0.95 0.93 0.89 0.96 1.02 1.03 0.96 0.97 1.11 1.20 1.25 1.29 1.30 1.31 1.32 1.35 1.30 1.25 1.25 1.30 1.39 1.45 1.48 1.49 1.50 1.50 1.47 1.49 1.52 1.59 1.57 1.65 1.74 1.82 1.96 1.98 1.97 1.96 1.92 1.93 1.92 1.85 1.81 1.78 1.75
1.55 1.54 1.55 1.54 1.56 1.59 1.60 1.67 1.72 1.73 1.74 1.77 1.78 1.77 1.71 1.68 1.64 1.62 1.64 1.63 1.62 1.59 1.59 1.63 1.63 1.60 1.61 1.58 1.54 1.38 1.38 1.42 1.49 1.39 1.26 1.14 1.09 1.05 1.01 1.01 0.99 0.94 0.93 1.01 1.00 0.98 0.97 0.99 1.08 1.13 1.20 1.23 1.28 1.35 1.33 1.34 1.32 1.31 1.28 1.29 1.28 1.34 1.40 1.46 1.51 1.52 1.51 1.50 1.49 1.61 1.67 1.75 1.80 1.86 1.90 1.93 1.87 1.81 1.80 1.77 1.74 1.71 1.70 1.68 1.64
1.40 1.41 1.43 1.42 1.42 1.41 1.35 1.34 1.37 1.43 1.45 1.46 1.48 1.53 1.61 1.65 1.64 1.64 1.65 1.59 1.52 1.50 1.48 1.43 1.38 1.34 1.32 1.27 1.22 1.28 1.38 1.32 1.21 1.11 1.01 0.97 0.98 0.96 0.98 1.00 0.99 0.95 1.00 1.02 1.00 0.95 0.97 1.04 1.09 1.14 1.15 1.24 1.29 1.36 1.37 1.32 1.29 1.32 1.35 1.37 1.30 1.31 1.38 1.38 1.43 1.49 1.52 1.57 1.59 1.62 1.67 1.71 1.78 1.80 1.78 1.80 1.77 1.76 1.77 1.73 1.68 1.65 1.63 1.62 1.57
1.15 1.15 1.15 1.16 1.15 1.14 1.13 1.14 1.13 1.13 1.14 1.14 1.10 1.09 1.13 1.18 1.19 1.21 1.23 1.25 1.27 1.27 1.22 1.19 1.20 1.18 1.18 1.15 1.12 1.15 1.09 1.07 1.03 0.95 0.92 0.95 0.94 0.95 0.95 0.95 0.93 0.90 0.91 0.86 0.78 0.75 0.83 0.92 1.15 1.22 1.23 1.28 1.30 1.34 1.38 1.30 1.24 1.25 1.27 1.29 1.29 1.30 1.29 1.34 1.37 1.41 1.41 1.48 1.54 1.58 1.59 1.60 1.58 1.60 1.65 1.66 1.68 1.71 1.74 1.70 1.65 1.61 1.63 1.60 1.51
1.08 1.06 1.06 1.05 1.04 1.04 1.01 1.01 1.00 0.99 0.98 1.00 0.99 0.98 0.98 0.99 0.96 0.99 1.08 1.11 1.09 1.04 1.06 1.07 1.05 1.05 0.98 0.88 0.92 0.92 0.97 0.94 0.91 0.96 0.97 0.95 0.93 0.92 0.92 0.91 0.91 0.89 0.86 0.85 0.78 0.89 1.02 1.14 1.24 1.25 1.17 1.09 1.07 1.06 1.08 1.08 1.07 1.11 1.12 1.15 1.21 1.22 1.21 1.22 1.20 1.21 1.24 1.29 1.32 1.36 1.39 1.44 1.48 1.52 1.52 1.51 1.54 1.58 1.66 1.62 1.58 1.52 1.54 1.52 1.44
1.06 1.04 1.04 1.04 1.06 1.07 1.06 1.03 1.00 0.97 0.97 0.96 0.95 0.96 0.98 0.97 0.96 0.95 0.90 0.94 0.95 0.97 0.96 0.91 0.94 1.01 1.00 0.92 0.92 0.89 0.86 0.91 0.94 0.95 0.93 0.92 0.91 0.90 0.87 0.87 0.85 0.81 0.81 0.81 0.88 0.87 0.94 1.06 1.01 1.00 1.02 0.99 0.90 0.91 0.94 0.95 0.93 0.93 0.97 0.99 1.00 1.02 1.05 1.08 1.10 1.12 1.15 1.17 1.21 1.24 1.23 1.23 1.25 1.32 1.34 1.36 1.41 1.45 1.48 1.45 1.42 1.44 1.41 1.41 1.39
1.07 1.06 1.04 1.02 1.01 0.99 1.02 1.04 1.07 1.05 1.01 0.97 0.94 0.92 0.90 0.93 0.93 0.92 0.92 0.91 0.89 0.87 0.87 0.84 0.84 0.87 0.91 0.86 0.84 0.84 0.84 0.83 0.84 0.82 0.82 0.82 0.80 0.79 0.77 0.75 0.75 0.72 0.75 0.76 0.79 0.94 0.95 0.95 0.95 0.97 0.97 0.94 0.88 0.87 0.89 0.90 0.91 0.90 0.93 0.95 0.97 0.93 0.93 0.94 0.98 1.01 1.02 1.04 1.09 1.13 1.15 1.14 1.15 1.18 1.18 1.21 1.23 1.27 1.31 1.35 1.36 1.37 1.37 1.39 1.36
1.07 1.06 1.07 1.07 1.07 1.02 0.97 0.95 0.97 1.01 1.04 1.05 1.00 0.93 0.86 0.82 0.82 0.83 0.85 0.84 0.83 0.83 0.82 0.81 0.81 0.79 0.78 0.79 0.80 0.79 0.74 0.74 0.72 0.70 0.70 0.71 0.72 0.74 0.74 0.72 0.72 0.71 0.72 0.78 0.73 0.82 0.89 0.88 0.84 0.87 0.82 0.84 0.86 0.85 0.85 0.85 0.89 0.91 0.91 0.91 0.91 0.92 0.91 0.91 0.94 0.94 0.94 0.96 0.97 0.98 1.02 1.04 1.06 1.08 1.09 1.11 1.13 1.17 1.19 1.21 1.24 1.26 1.28 1.29 1.29
1.06 1.03 1.02 1.00 0.98 0.95 0.93 0.92 0.92 0.91 0.86 0.83 0.86 0.88 0.87 0.85 0.78 0.73 0.78 0.81 0.78 0.76 0.72 0.73 0.74 0.74 0.73 0.72 0.71 0.67 0.67 0.67 0.66 0.65 0.63 0.61 0.62 0.67 0.71 0.69 0.71 0.74 0.77 0.79 0.85 0.83 0.80 0.83 0.81 0.86 0.86 0.81 0.88 0.84 0.86 0.86 0.86 0.86 0.87 0.86 0.85 0.86 0.89 0.92 0.95 0.93 0.91 0.89 0.92 0.92 0.94 0.96 0.98 1.01 1.04 1.06 1.06 1.07 1.12 1.12 1.14 1.13 1.13 1.11 1.13
1.02 0.99 0.96 0.94 0.92 0.89 0.88 0.88 0.86 0.82 0.80 0.79 0.76 0.74 0.72 0.72 0.71 0.73 0.68 0.66 0.69 0.72 0.72 0.69 0.66 0.64 0.66 0.66 0.66 0.66 0.65 0.65 0.63 0.64 0.60 0.59 0.57 0.55 0.62 0.69 0.77 0.74 0.71 0.76 0.80 0.83 0.84 0.83 0.81 0.77 0.73 0.74 0.78 0.85 0.85 0.87 0.87 0.86 0.85 0.86 0.86 0.87 0.87 0.89 0.86 0.85 0.86 0.86 0.85 0.85 0.87 0.88 0.89 0.88 0.88 0.91 0.95 0.97 0.99 1.01 1.02 1.00 1.01 1.01 0.99
0.83 0.81 0.83 0.84 0.83 0.79 0.76 0.78 0.77 0.77 0.76 0.77 0.77 0.76 0.74 0.71 0.68 0.65 0.60 0.58 0.58 0.61 0.62 0.65 0.68 0.64 0.59 0.58 0.59 0.61 0.61 0.61 0.61 0.60 0.59 0.58 0.56 0.52 0.61 0.74 0.84 0.88 0.87 0.83 0.81 0.80 0.79 0.77 0.80 0.82 0.83 0.84 0.84 0.82 0.84 0.83 0.86 0.86 0.85 0.85 0.85 0.85 0.85 0.83 0.80 0.83 0.82 0.82 0.81 0.80 0.79 0.79 0.80 0.79 0.78 0.80 0.82 0.80 0.80 0.82 0.82 0.84 0.83 0.78 0.70
0.85 0.83 0.82 0.82 0.83 0.81 0.78 0.75 0.71 0.69 0.69 0.72 0.71 0.69 0.71 0.70 0.69 0.66 0.64 0.63 0.61 0.59 0.62 0.69 0.65 0.64 0.63 0.63 0.64 0.63 0.61 0.60 0.59 0.59 0.57 0.57 0.56 0.53 0.55 0.71 0.75 0.76 0.76 0.77 0.75 0.77 0.74 0.79 0.82 0.87 0.86 0.87 0.88 0.86 0.86 0.84 0.82 0.82 0.82 0.84 0.82 0.81 0.78 0.77 0.75 0.73 0.70 0.70 0.68 0.66 0.63 0.63 0.62 0.59 0.56 0.55 0.56 0.58 0.59 0.58 0.56 0.57 0.56 0.55 0.54
0.73 0.70 0.67 0.70 0.73 0.72 0.71 0.70 0.58 0.55 0.55 0.62 0.63 0.67 0.67 0.68 0.63 0.60 0.63 0.65 0.63 0.58 0.55 0.63 0.72 0.66 0.62 0.68 0.71 0.69 0.68 0.65 0.61 0.58 0.60 0.59 0.60 0.60 0.60 0.71 0.70 0.70 0.60 0.73 0.77 0.77 0.77 0.80 0.81 0.83 0.84 0.82 0.82 0.83 0.83 0.84 0.83 0.83 0.83 0.80 0.80 0.76 0.71 0.71 0.71 0.69 0.63 0.61 0.60 0.59 0.56 0.55 0.56 0.55 0.53 0.48 0.47 0.48 0.49 0.51 0.50 0.47 0.47 0.47 0.44
0.46 0.43 0.42 0.47 0.50 0.52 0.58 0.62 0.56 0.57 0.67 0.54 0.69 0.65 0.62 0.59 0.57 0.61 0.65 0.67 0.66 0.60 0.63 0.66 0.63 0.64 0.69 0.82 0.84 0.71 0.67 0.66 0.65 0.66 0.70 0.72 0.72 0.72 0.72 0.71 0.68 0.63 0.65 0.72 0.76 0.77 0.77 0.79 0.80 0.78 0.80 0.80 0.80 0.82 0.80 0.79 0.79 0.77 0.77 0.77 0.75 0.75 0.72 0.73 0.72 0.70 0.66 0.63 0.61 0.60 0.58 0.57 0.56 0.55 0.54 0.52 0.49 0.49 0.50 0.52 0.51 0.49 0.49 0.52 0.50
0.50 0.38 0.36 0.38 0.35 0.42 0.50 0.51 0.53 0.53 0.52 0.45 0.56 0.49 0.46 0.50 0.55 0.52 0.53 0.53 0.53 0.58 0.61 0.63 0.63 0.62 0.64 0.72 0.78 0.80 0.70 0.69 0.67 0.67 0.68 0.74 0.77 0.74 0.73 0.71 0.70 0.70 0.71 0.74 0.78 0.78 0.78 0.79 0.81 0.80 0.79 0.78 0.78 0.77 0.76 0.75 0.75 0.74 0.74 0.73 0.72 0.71 0.68 0.68 0.67 0.69 0.68 0.67 0.66 0.65 0.65 0.65 0.65 0.63 0.61 0.57 0.57 0.57 0.56 0.56 0.54 0.53 0.52 0.50 0.53
0.62 0.56 0.39 0.38 0.45 0.50 0.48 0.56 0.60 0.54 0.50 0.47 0.48 0.45 0.54 0.53 0.47 0.47 0.47 0.49 0.51 0.51 0.50 0.53 0.55 0.59 0.65 0.72 0.76 0.76 0.70 0.66 0.61 0.62 0.62 0.63 0.66 0.68 0.69 0.72 0.74 0.75 0.75 0.78 0.81 0.82 0.81 0.82 0.84 0.81 0.81 0.80 0.76 0.74 0.74 0.74 0.74 0.72 0.71 0.72 0.70 0.66 0.68 0.71 0.70 0.69 0.70 0.70 0.70 0.69 0.68 0.68 0.67 0.67 0.67 0.67 0.67 0.65 0.59 0.57 0.57 0.56 0.55 0.53 0.53
0.57 0.53 0.54 0.45 0.36 0.54 0.53 0.55 0.58 0.48 0.52 0.50 0.51 0.55 0.56 0.49 0.49 0.47 0.50 0.49 0.49 0.49 0.52 0.53 0.55 0.58 0.63 0.63 0.61 0.60 0.56 0.53 0.53 0.53 0.54 0.57 0.61 0.64 0.68 0.71 0.75 0.78 0.79 0.80 0.81 0.82 0.83 0.83 0.84 0.83 0.81 0.78 0.75 0.74 0.73 0.73 0.74 0.74 0.74 0.74 0.74 0.73 0.72 0.74 0.74 0.71 0.70 0.67 0.66 0.65 0.66 0.67 0.67 0.67 0.65 0.66 0.65 0.64 0.67 0.68 0.67 0.66 0.66 0.65 0.64
0.45 0.47 0.51 0.48 0.49 0.49 0.50 0.51 0.48 0.51 0.52 0.52 0.53 0.48 0.43 0.44 0.45 0.47 0.45 0.46 0.48 0.50 0.50 0.51 0.52 0.55 0.62 0.61 0.58 0.54 0.50 0.48 0.47 0.50 0.54 0.57 0.59 0.63 0.69 0.74 0.80 0.82 0.82 0.82 0.82 0.82 0.84 0.84 0.83 0.80 0.77 0.75 0.74 0.74 0.76 0.78 0.79 0.78 0.78 0.76 0.74 0.73 0.74 0.75 0.74 0.73 0.72 0.70 0.69 0.67 0.66 0.65 0.65 0.64 0.64 0.64 0.64 0.65 0.65 0.65 0.64 0.64 0.63 0.62 0.62
0.38 0.42 0.44 0.41 0.46 0.43 0.43 0.46 0.47 0.49 0.48 0.46 0.41 0.42 0.45 0.46 0.47 0.46 0.50 0.52 0.52 0.51 0.51 0.51 0.53 0.57 0.61 0.61 0.58 0.57 0.57 0.60 0.60 0.60 0.59 0.61 0.65 0.69 0.73 0.79 0.84 0.87 0.88 0.88 0.86 0.85 0.83 0.81 0.76 0.73 0.72 0.73 0.74 0.76 0.74 0.73 0.75 0.75 0.75 0.77 0.77 0.75 0.73 0.74 0.74 0.72 0.73 0.73 0.72 0.71 0.69 0.67 0.66 0.65 0.64 0.63 0.62 0.61 0.61 0.61 0.60 0.60 0.60 0.59 0.59
0.48 0.50 0.48 0.50 0.47 0.51 0.49 0.47 0.51 0.49 0.49 0.44 0.51 0.53 0.51 0.50 0.52 0.52 0.52 0.52 0.53 0.53 0.52 0.53 0.54 0.55 0.55 0.64 0.64 0.65 0.64 0.62 0.62 0.62 0.62 0.63 0.66 0.75 0.79 0.81 0.85 0.84 0.81 0.80 0.79 0.78 0.76 0.74 0.70 0.70 0.72 0.73 0.74 0.73 0.72 0.72 0.72 0.72 0.74 0.75 0.74 0.74 0.75 0.75 0.74 0.72 0.71 0.71 0.71 0.70 0.69 0.69 0.68 0.67 0.66 0.64 0.64 0.62 0.62 0.61 0.60 0.59 0.58 0.58 0.57
0.49 0.49 0.50 0.55 0.51 0.50 0.53 0.52 0.44 0.50 0.48 0.51 0.53 0.53 0.54 0.53 0.52 0.52 0.52 0.53 0.54 0.54 0.56 0.57 0.57 0.57 0.58 0.60 0.62 0.64 0.63 0.61 0.63 0.65 0.69 0.75 0.78 0.80 0.83 0.83 0.82 0.81 0.79 0.77 0.77 0.76 0.71 0.68 0.66 0.66 0.67 0.68 0.68 0.69 0.70 0.70 0.70 0.69 0.70 0.72 0.73 0.74 0.75 0.74 0.74 0.75 0.73 0.69 0.69 0.70 0.70 0.69 0.67 0.67 0.65 0.65 0.64 0.63 0.61 0.60 0.60 0.59 0.58 0.56 0.55
0.49 0.51 0.49 0.51 0.52 0.50 0.50 0.49 0.50 0.47 0.50 0.51 0.49 0.50 0.50 0.50 0.51 0.51 0.51 0.53 0.55 0.53 0.52 0.54 0.57 0.58 0.59 0.63 0.65 0.65 0.66 0.66 0.69 0.74 0.74 0.74 0.73 0.75 0.77 0.78 0.75 0.73 0.70 0.69 0.69 0.69 0.69 0.68 0.67 0.67 0.66 0.66 0.67 0.69 0.70 0.71 0.72 0.73 0.73 0.73 0.73 0.71 0.71 0.71 0.70 0.70 0.70 0.70 0.68 0.67 0.67 0.68 0.68 0.67 0.67 0.67 0.66 0.65 0.63 0.62 0.61 0.60 0.58 0.57 0.57
0.48 0.50 0.48 0.48 0.45 0.51 0.50 0.49 0.48 0.44 0.49 0.47 0.48 0.45 0.48 0.47 0.49 0.52 0.53 0.54 0.52 0.53 0.55 0.56 0.57 0.58 0.60 0.61 0.63 0.64 0.66 0.69 0.69 0.69 0.68 0.67 0.67 0.69 0.69 0.69 0.69 0.67 0.66 0.66 0.66 0.67 0.67 0.68 0.67 0.67 0.68 0.67 0.67 0.68 0.71 0.72 0.73 0.74 0.72 0.73 0.76 0.74 0.74 0.72 0.70 0.69 0.70 0.70 0.70 0.69 0.68 0.67 0.65 0.65 0.65 0.65 0.64 0.63 0.62 0.61 0.60 0.59 0.59 0.58 0.58
0.51 0.51 0.47 0.46 0.47 0.48 0.48 0.48 0.46 0.47 0.46 0.46 0.44 0.45 0.47 0.46 0.47 0.48 0.51 0.51 0.52 0.52 0.53 0.55 0.55 0.56 0.58 0.60 0.62 0.62 0.61 0.61 0.63 0.64 0.65 0.65 0.64 0.64 0.66 0.67 0.66 0.66 0.66 0.66 0.66 0.65 0.65 0.66 0.67 0.67 0.66 0.66 0.66 0.66 0.67 0.69 0.71 0.75 0.77 0.77 0.75 0.74 0.73 0.71 0.69 0.68 0.66 0.66 0.67 0.70 0.70 0.70 0.68 0.67 0.67 0.66 0.64 0.63 0.62 0.61 0.61 0.60 0.60 0.59 0.59
0.50 0.52 0.50 0.44 0.45 0.47 0.46 0.46 0.42 0.44 0.43 0.43 0.44 0.46 0.46 0.45 0.46 0.47 0.50 0.50 0.50 0.51 0.53 0.52 0.53 0.55 0.55 0.57 0.57 0.57 0.57 0.57 0.58 0.59 0.60 0.61 0.62 0.63 0.64 0.65 0.66 0.67 0.66 0.65 0.66 0.67 0.68 0.67 0.66 0.66 0.66 0.66 0.66 0.67 0.67 0.67 0.68 0.73 0.74 0.74 0.74 0.73 0.70 0.68 0.67 0.66 0.66 0.68 0.68 0.67 0.66 0.66 0.66 0.66 0.66 0.66 0.66 0.66 0.65 0.64 0.63 0.62 0.61 0.61 0.61
0.48 0.48 0.46 0.46 0.45 0.45 0.45 0.45 0.42 0.46 0.43 0.43 0.43 0.43 0.44 0.44 0.46 0.47 0.48 0.49 0.48 0.50 0.51 0.53 0.53 0.54 0.55 0.56 0.54 0.54 0.54 0.55 0.57 0.57 0.58 0.60 0.60 0.61 0.61 0.62 0.64 0.65 0.66 0.65 0.65 0.66 0.67 0.67 0.68 0.67 0.67 0.67 0.68 0.69 0.69 0.68 0.69 0.71 0.71 0.72 0.72 0.70 0.69 0.66 0.65 0.65 0.66 0.67 0.67 0.65 0.64 0.65 0.65 0.64 0.64 0.63 0.63 0.62 0.62 0.63 0.64 0.63 0.62 0.61 0.62
0.45 0.46 0.46 0.42 0.43 0.45 0.45 0.41 0.43 0.41 0.43 0.42 0.42 0.43 0.44 0.45 0.45 0.46 0.47 0.47 0.47 0.48 0.50 0.52 0.53 0.56 0.57 0.58 0.58 0.57 0.56 0.57 0.57 0.58 0.58 0.59 0.60 0.61 0.62 0.62 0.63 0.64 0.65 0.64 0.65 0.66 0.68 0.68 0.68 0.69 0.71 0.71 0.72 0.72 0.71 0.71 0.72 0.70 0.69 0.68 0.68 0.67 0.66 0.65 0.64 0.64 0.64 0.64 0.63 0.63 0.63 0.64 0.64 0.62 0.61 0.61 0.61 0.60 0.60 0.60 0.60 0.60 0.60 0.59 0.60
Wind_Speed
18 17 17 16 15 15 15 15 14 14 13 13 12 12 11 11 11 11 10 10 10 10 10 10 9 9 9 8 8 8 8 8 7 7 7 7 7 7 7 7 7 7 7 7 7 7 7 8 8 8 8 8 8 8 8 8 8 9 9 8 8 8 8 8 8 9 9 9 9 9 9 9 9 8 8 9 10 10 11 11 11 11 9 9 10
18 17 17 16 16 16 15 15 15 15 14 14 13 13 12 12 12 11 11 11 11 11 10 10 10 10 10 9 9 9 8 8 8 8 8 8 8 8 8 8 8 8 8 8 8 8 8 9 9 8 8 9 8 8 8 9 9 9 9 9 9 9 9 9 9 10 10 10 10 10 10 11 11 10 9 10 10 11 11 11 11 11 10 9 9
19 18 17 17 17 16 16 15 15 15 15 15 14 14 13 13 13 12 12 12 12 12 11 11 11 11 10 10 10 10 9 9 9 9 9 9 9 9 9 8 9 9 9 9 9 9 9 9 9 9 9 9 9 9 9 9 10 10 10 10 10 10 10 10 10 10 11 12 12 12 11 11 11 11 11 11 11 12 11 11 11 11 11 11 10
19 19 18 18 18 17 17 16 16 16 16 15 15 15 14 14 14 13 13 13 13 13 12 12 12 11 11 11 11 11 11 10 10 10 10 10 10 10 10 10 10 10 10 10 10 10 10 10 10 10 10 10 10 10 11 11 11 11 11 11 11 11 11 11 11 11 11 13 13 13 12 12 12 12 12 12 12 12 11 11 11 11 12 11 10
20 20 19 19 18 18 18 17 17 17 16 16 15 15 15 14 14 14 14 14 14 13 13 13 13 12 12 12 12 12 12 11 11 11 11 11 11 11 11 11 11 11 11 11 11 11 11 11 11 12 12 12 12 12 12 12 12 12 12 12 12 12 12 12 11 11 12 13 14 14 13 13 13 13 13 13 13 13 12 12 12 11 12 12 11
20 20 20 20 19 19 19 18 18 18 17 16 16 16 15 15 15 15 15 15 15 14 14 14 14 13 13 13 13 13 12 12 12 12 12 12 12 12 11 11 11 11 12 12 12 12 12 12 13 13 13 13 13 13 13 13 13 13 13 13 13 13 13 14 13 13 13 14 14 15 14 14 14 13 13 13 13 13 13 13 13 12 12 12 12
22 21 21 20 20 20 20 19 19 18 18 17 17 16 16 16 16 15 15 15 15 15 15 15 14 14 14 14 14 14 14 13 13 13 13 12 12 12 12 12 12 12 12 13 13 13 13 13 13 14 14 14 15 14 14 14 14 14 14 14 14 14 14 15 15 14 15 15 15 15 15 15 15 15 14 14 14 15 15 14 14 13 13 13 13
23 22 22 21 21 20 20 20 19 19 18 18 18 17 17 16 16 16 16 16 16 16 16 16 15 15 15 15 15 15 15 14 14 14 14 14 14 14 14 14 14 14 13 13 14 14 14 14 14 15 15 15 15 15 15 15 15 16 16 16 15 15 15 15 15 15 15 15 16 16 16 16 16 16 15 15 16 16 15 15 15 15 15 14 13
24 23 22 22 21 21 20 20 19 19 19 18 17 17 17 17 17 17 17 17 17 17 17 17 16 16 15 15 15 16 16 15 15 15 15 14 14 14 14 15 15 15 15 15 15 15 15 16 16 16 16 17 17 17 17 17 17 17 17 17 17 16 16 16 16 16 16 16 16 16 16 16 16 16 16 16 16 16 16 16 15 15 15 15 14
24 24 23 23 22 21 21 20 20 19 19 18 18 18 18 18 18 18 18 18 18 17 17 17 17 16 16 16 16 16 16 16 15 15 15 15 15 15 15 15 16 16 16 17 17 17 17 17 17 18 18 19 19 19 19 19 18 18 18 18 18 17 17 17 17 17 16 17 16 16 16 16 17 17 17 17 17 17 16 16 15 14 15 15 15
25 24 24 23 23 22 21 21 21 20 20 20 20 20 19 19 19 19 19 19 19 19 18 18 18 17 17 16 16 15 16 16 16 16 16 16 16 17 16 17 17 17 17 17 18 18 18 18 19 19 19 20 20 20 20 20 20 19 19 19 19 18 18 18 17 17 17 18 17 16 16 17 18 19 19 18 18 18 17 16 15 15 15 15 16
25 25 25 24 23 22 22 21 21 21 21 21 21 21 21 21 21 21 20 20 20 20 19 19 19 18 18 17 16 16 16 16 17 17 17 17 17 18 18 18 18 18 18 18 19 19 19 19 19 19 19 20 20 20 20 21 21 21 20 20 20 20 19 19 19 19 19 19 19 19 19 19 20 20 20 20 19 19 18 17 17 17 17 16 16
26 26 25 25 24 23 23 22 22 22 22 22 22 22 22 22 22 22 22 21 21 21 20 20 20 19 19 18 18 18 17 17 18 18 18 18 19 19 19 19 19 19 19 20 20 20 20 19 20 20 20 20 20 20 21 21 21 21 21 21 21 21 21 22 22 22 22 22 22 22 22 22 22 22 22 22 21 21 20 20 19 19 18 17 17
26 26 26 26 25 24 23 23 23 22 22 22 22 22 22 23 23 23 23 22 22 21 21 20 20 20 20 20 20 20 19 19 19 19 20 20 20 21 21 20 21 21 20 20 20 20 20 21 21 22 22 21 22 22 22 22 22 22 22 23 22 22 22 23 23 24 25 25 25 25 25 24 25 25 24 24 23 23 22 22 21 20 20 19 19
26 25 25 26 26 24 23 23 23 23 23 23 23 23 23 23 24 24 24 23 22 22 21 21 20 21 21 20 20 21 21 20 20 21 21 21 22 21 21 21 21 21 21 21 21 21 21 22 23 23 23 23 23 23 23 24 24 24 24 24 24 24 24 24 25 25 26 27 27 27 26 26 26 26 26 25 24 24 23 23 22 22 21 20 20
25 25 25 25 25 25 24 24 24 24 23 23 23 24 24 25 25 24 24 24 23 23 23 22 21 21 20 20 20 20 21 21 21 21 21 22 22 22 21 22 22 22 22 22 22 22 23 23 23 24 24 24 24 24 25 25 26 26 26 26 26 27 27 26 27 27 27 28 28 27 27 28 27 27 26 26 25 24 24 23 23 22 21 20 19
24 25 25 25 25 25 25 25 25 24 24 24 25 25 26 26 26 25 25 25 24 24 23 23 22 21 20 20 20 21 21 22 21 21 21 22 22 22 22 22 22 22 22 23 23 23 23 23 23 24 24 24 25 26 26 27 28 28 28 28 28 29 28 28 27 28 27 28 28 28 28 28 27 27 27 27 26 25 24 24 23 22 22 21 21
23 24 24 25 26 26 26 26 25 25 26 26 27 27 27 28 28 27 27 26 25 24 24 23 23 22 21 21 21 21 21 21 21 21 22 22 22 22 22 22 22 22 23 23 23 23 23 23 23 23 24 25 25 26 27 28 28 28 28 29 29 29 29 28 28 28 28 28 28 28 28 27 27 28 28 28 27 26 25 24 24 23 23 23 22
23 23 24 24 25 26 26 26 26 27 28 28 28 28 27 28 28 28 29 28 26 25 24 23 23 23 23 22 21 22 22 22 21 21 21 22 22 22 22 22 22 23 23 23 23 23 23 23 23 23 24 25 25 25 25 26 26 27 27 27 28 28 29 29 29 29 29 29 28 27 27 27 28 28 28 27 27 26 24 24 23 23 23 23 22
21 23 23 24 24 25 25 25 25 26 27 27 27 27 26 26 27 27 28 28 27 25 25 24 23 23 23 23 23 22 22 22 21 21 21 21 21 21 22 22 22 23 23 23 23 23 23 23 23 23 24 24 24 24 24 24 24 25 25 26 26 27 27 28 28 28 29 28 27 27 27 27 28 27 27 27 26 24 23 23 22 22 22 22 22
18 19 20 21 21 22 22 22 21 22 22 22 23 23 24 25 26 26 26 26 26 26 25 25 24 22 22 23 23 23 22 21 21 20 20 20 21 21 22 22 22 23 23 23 23 23 23 23 23 23 23 23 23 23 22 22 23 23 23 23 24 25 26 26 26 26 27 27 27 28 28 28 27 26 25 25 24 22 21 22 22 21 21 21 21
14 14 15 15 15 15 16 16 16 16 17 17 17 17 17 19 21 21 22 22 22 23 24 23 22 21 21 21 21 21 21 21 20 20 21 21 22 22 22 22 23 23 23 24 23 23 23 23 23 23 23 22 22 22 22 22 22 22 22 22 23 23 24 24 24 24 25 25 25 25 25 25 24 23 22 21 20 20 20 20 21 21 21 20 20
12 11 11 11 10 9 8 9 9 9 9 10 12 11 10 11 13 16 18 18 18 19 19 20 20 20 20 21 20 21 21 21 21 22 22 22 22 22 22 22 23 23 23 23 23 22 22 22 22 22 22 22 22 22 22 22 22 22 22 22 22 23 23 23 23 23 23 23 23 23 23 22 21 20 19 18 18 18 18 19 19 20 20 19 19
10 10 9 9 9 8 6 5 5 4 3 4 7 8 7 7 8 10 12 15 18 19 18 17 17 18 19 20 21 21 21 21 22 22 22 22 22 22 22 22 22 21 21 21 22 21 21 22 22 22 21 21 22 21 21 21 21 21 21 21 22 22 22 22 22 22 22 22 21 21 21 20 18 17 17 17 18 18 19 19 19 19 19 19 19
10 9 9 8 8 8 7 5 4 3 2 2 4 5 6 6 6 6 6 9 13 16 17 16 15 15 15 16 17 18 18 18 18 18 19 19 19 20 20 20 20 20 20 20 21 21 21 21 21 21 21 21 21 21 21 21 21 21 21 21 21 21 21 21 21 21 21 21 21 21 20 19 19 18 18 19 19 20 20 20 20 19 20 20 21
9 9 8 8 8 8 7 7 6 4 3 3 3 3 4 5 5 5 4 4 6 8 9 11 12 12 11 12 12 13 14 14 14 15 15 16 16 17 18 19 19 19 20 20 21 22 22 22 22 22 22 21 21 21 21 21 21 22 22 22 22 21 21 21 21 22 22 22 22 21 21 20 20 20 20 21 21 21 22 22 21 21 22 23 23
9 8 8 8 8 8 8 7 7 6 5 4 4 4 4 4 3 3 4 4 4 5 6 7 8 9 10 10 10 11 12 12 13 14 14 15 16 17 17 18 18 19 20 20 21 22 22 23 23 23 22 22 22 22 22 22 23 23 23 23 23 23 23 23 22 23 23 22 22 22 21 21 21 21 21 21 22 22 23 23 23 23 24 25 25
8 8 8 8 8 8 8 7 7 6 5 4 4 4 4 4 4 4 4 5 5 6 6 7 8 8 9 9 10 11 12 12 13 14 15 15 16 17 17 18 19 20 20 21 22 23 23 24 24 24 24 24 25 24 24 23 24 24 24 24 24 24 24 24 24 23 23 23 23 22 22 22 22 22 22 22 22 23 23 24 24 24 25 25 26
7 7 7 7 7 6 6 6 5 5 5 5 4 4 4 4 4 5 5 6 7 7 8 8 9 10 11 11 12 13 14 14 15 16 16 17 18 18 19 20 20 21 22 22 23 23 24 25 25 25 25 25 25 25 25 25 25 25 25 25 25 25 25 25 25 24 24 24 24 23 23 23 23 23 23 23 24 24 25 25 26 26 26 27 26
5 5 5 5 5 5 5 5 5 5 5 5 5 5 5 5 6 6 7 8 8 9 10 10 11 13 13 14 15 15 16 16 17 18 18 19 20 20 21 21 22 23 23 24 24 24 24 25 26 25 25 25 25 26 26 26 26 26 26 26 26 26 26 25 25 25 25 25 25 24 24 25 25 25 25 26 26 26 27 27 28 28 28 28 28
4 4 4 4 4 4 4 5 5 5 6 6 6 6 7 7 8 8 9 9 10 11 12 12 13 14 15 15 16 17 17 18 18 19 20 21 21 22 22 23 23 24 24 24 25 25 26 26 26 26 26 27 27 27 27 28 28 28 28 27 27 26 26 26 26 26 26 26 26 26 26 26 27 27 27 27 28 28 28 28 29 29 29 29 29
5 4 5 5 5 5 5 6 6 7 7 7 8 8 9 9 10 10 11 12 12 13 14 14 15 16 16 17 18 18 19 19 20 21 22 22 23 23 24 24 25 25 25 25 26 26 26 27 27 27 27 28 28 28 29 29 29 29 29 29 28 28 28 28 28 28 28 28 28 28 28 28 28 29 29 29 29 30 30 30 30 31 31 31 32
6 6 6 6 7 7 7 8 8 8 9 9 10 11 11 12 12 13 13 14 14 15 16 16 17 18 18 19 19 20 21 22 22 23 23 24 24 25 25 25 26 26 26 26 27 27 28 28 28 28 28 29 29 29 30 30 30 30 30 30 30 30 30 30 30 30 30 30 30 30 30 30 30 31 31 31 32 32 32 32 32 33 33 33 33
6 7 7 8 8 9 9 10 10 11 11 11 12 12 13 14 14 15 15 15 16 17 17 18 18 19 19 20 21 21 22 23 24 24 25 25 26 26 26 26 27 27 27 27 28 28 29 29 29 30 30 30 31 31 31 31 32 32 32 32 32 32 32 32 32 32 32 32 32 32 33 33 33 33 33 33 33 33 33 33 34 34 34 35 35
7 7 8 8 9 10 10 11 11 12 13 13 14 14 14 15 15 15 16 16 17 18 18 19 19 20 21 21 22 23 24 24 25 26 27 27 28 28 28 28 29 29 29 29 29 30 30 31 31 31 32 32 32 33 33 33 33 34 34 34 34 34 34 34 34 35 35 35 35 35 35 35 35 35 35 35 35 35 35 35 35 35 35 36 36
8 8 9 9 10 11 11 11 12 13 13 13 14 14 15 15 16 16 17 17 18 19 20 20 20 22 23 23 24 24 25 26 27 28 28 29 29 29 29 30 31 31 31 31 32 32 32 33 33 33 34 34 34 35 35 35 35 35 36 36 36 36 36 36 37 37 37 37 37 37 37 37 37 37 37 36 36 36 36 36 36 37 37 37 37
8 9 9 10 10 10 11 11 12 12 13 13 14 15 15 16 17 18 19 19 19 20 21 22 22 23 24 25 25 25 27 28 28 29 29 29 30 30 30 31 31 32 33 33 34 33 34 34 35 35 35 36 36 36 37 37 37 37 37 38 38 38 38 38 38 38 38 38 37 38 38 38 38 38 37 37 37 37 37 37 37 38 37 37 38
8 9 9 10 10 10 10 11 12 12 13 14 15 15 16 17 18 19 20 21 21 22 23 23 24 25 25 25 25 27 28 28 29 29 30 30 30 30 30 31 32 33 34 35 35 35 36 36 36 36 37 37 38 38 38 39 39 39 39 39 39 39 39 39 39 39 39 39 39 39 39 38 39 39 39 39 38 38 38 38 38 38 37 37 37
8 8 9 10 10 10 11 12 12 13 14 15 16 16 17 18 19 20 21 22 23 24 24 25 26 26 26 27 27 28 29 29 30 31 31 31 32 32 33 33 34 35 36 36 36 36 37 37 38 38 38 38 39 40 40 40 40 41 40 40 40 40 40 40 40 40 40 39 39 39 40 40 40 40 40 40 39 39 39 39 38 38 38 38 37
8 8 9 10 10 11 12 13 13 14 15 16 17 18 19 19 20 21 22 23 24 25 25 26 27 27 28 29 29 30 31 32 33 33 33 33 34 34 35 35 35 36 37 37 37 38 38 38 39 39 40 40 40 41 41 42 43 43 43 43 43 43 43 42 41 40 40 40 40 41 41 41 41 41 41 40 40 40 40 40 39 39 39 38 38
9 9 10 10 11 12 13 14 14 15 16 17 18 19 20 21 22 23 23 24 25 26 26 27 28 28 29 29 30 31 33 34 34 34 35 35 35 35 35 36 36 37 38 38 38 38 38 38 39 39 40 41 41 41 42 43 43 43 43 44 44 44 44 43 43 42 42 43 43 42 42 42 42 42 42 42 41 41 41 40 40 40 39 39 39
10 10 11 12 13 13 14 15 16 16 17 18 19 20 21 22 23 23 24 25 26 26 27 28 29 29 30 30 31 32 33 34 34 35 35 35 35 36 36 36 37 37 37 38 37 37 37 38 38 39 39 40 40 41 41 42 43 43 44 44 44 44 43 44 44 44 44 44 43 42 42 42 43 43 43 43 42 42 41 41 41 41 40 40 40
11 12 12 13 14 14 15 16 16 17 18 19 20 21 21 22 23 24 25 25 26 27 28 29 30 31 31 32 32 33 34 34 34 35 35 36 36 36 35 35 35 35 35 36 36 36 36 37 38 39 39 40 40 40 41 41 42 43 43 44 44 43 43 43 44 44 43 44 44 43 42 42 42 42 42 42 42 42 41 41 41 41 40 40 40
11 12 13 13 14 15 15 16 17 18 19 20 21 21 22 23 24 25 26 27 27 28 29 30 31 32 33 33 34 34 35 35 36 36 36 36 35 35 35 34 34 34 35 35 36 36 37 38 39 39 40 40 40 40 41 41 42 42 42 42 42 42 42 43 42 42 42 42 42 42 41 41 41 41 41 40 40 40 40 40 40 40 39 39 39
12 13 14 14 15 15 16 17 17 18 19 20 21 22 23 24 25 26 27 28 28 29 30 31 32 33 34 34 35 35 35 36 36 36 35 35 34 34 34 34 35 35 36 36 37 37 37 38 39 39 39 40 40 40 40 41 41 41 41 41 41 41 40 41 41 41 41 41 40 40 40 39 39 39 39 38 38 38 38 38 38 38 37 37 37
13 13 14 15 15 16 16 17 18 19 20 20 21 22 23 24 25 26 27 28 29 30 31 32 33 33 34 34 35 35 35 35 35 35 34 34 34 34 34 34 35 35 36 37 37 37 37 38 38 38 37 38 38 39 39 39 39 39 39 39 38 38 38 39 39 39 39 38 38 38 37 37 37 37 37 37 37 36 36 36 36 36 36 36 36
14 14 15 15 16 16 16 17 18 19 20 20 21 22 23 24 25 27 28 28 29 30 31 32 32 33 33 34 34 35 35 35 34 34 34 34 33 33 34 34 35 35 35 35 36 36 36 36 36 36 37 37 37 38 38 38 38 38 37 36 35 36 36 36 37 37 36 36 36 36 35 34 34 34 35 34 34 34 34 34 34 34 34 34 34
14 15 15 16 16 17 17 18 19 20 20 21 22 23 24 25 26 27 28 29 30 30 31 32 32 32 33 33 34 34 34 34 33 33 33 33 33 33 33 33 34 34 34 34 34 34 34 34 34 35 35 36 36 36 36 36 36 35 34 33 33 34 34 35 34 34 34 34 34 33 32 31 31 31 31 31 31 32 32 32 32 32 32 32 32
15 16 16 16 17 18 18 19 20 20 21 22 23 24 25 26 28 28 29 30 30 31 31 32 33 33 33 33 33 33 33 33 32 32 32 32 32 32 32 32 32 32 32 32 33 33 33 33 33 33 34 34 35 35 34 34 33 32 32 31 31 31 31 31 31 31 30 30 29 29 28 28 28 28 28 28 28 28 28 29 29 29 29 30 30
16 16 16 17 17 18 19 19 20 21 22 23 24 25 26 28 29 29 30 30 31 31 32 32 33 33 33 33 32 32 32 32 31 31 31 31 31 30 30 30 30 30 30 30 31 31 31 32 32 33 33 33 33 33 32 31 31 30 29 28 28 28 27 27 26 26 25 25 25 25 25 25 25 26 26 25 25 26 26 26 26 26 27 27 28
16 16 17 17 18 18 19 20 21 22 23 24 25 26 27 28 29 30 30 30 31 32 32 33 33 34 33 33 32 32 31 31 31 30 30 29 29 29 29 29 29 29 29 29 30 30 30 31 31 31 31 31 30 30 29 28 28 27 27 26 26 26 26 25 24 24 23 23 23 23 23 24 24 24 24 25 25 25 25 25 25 25 25 26 27
Wind_Direction
204 205 206 208 208 209 210 212 214 215 217 218 219 220 220 221 221 222 222 223 223 223 224 226 227 229 232 234 234 234 233 237 240 240 244 250 252 254 255 256 261 266 266 267 268 270 272 274 276 279 282 284 285 287 289 291 292 291 289 288 291 295 299 298 297 301 306 308 310 312 312 313 313 315 318 317 318 321 324 327 328 327 329 331 334
206 207 209 211 212 213 214 215 216 217 219 220 221 222 223 224 225 226 226 227 227 228 228 230 231 232 235 237 238 238 237 239 243 244 246 251 253 255 257 258 262 265 266 267 269 270 271 274 277 279 280 282 284 286 289 290 291 292 292 294 296 298 299 299 299 301 303 306 309 309 310 310 308 309 314 315 317 318 318 321 324 324 327 326 323
209 210 212 213 215 216 217 218 219 220 221 222 224 225 226 227 227 229 231 231 231 232 233 234 234 234 236 239 239 240 241 243 246 247 248 250 252 256 257 257 260 263 265 267 269 270 271 273 275 276 278 280 282 285 287 289 290 291 293 295 296 297 298 297 297 299 302 305 307 309 311 309 306 309 313 313 314 315 315 317 319 321 325 324 318
211 212 214 216 217 218 220 221 222 222 223 225 226 227 228 229 229 231 233 235 235 234 235 236 236 235 238 240 240 241 243 245 248 249 250 251 253 255 257 257 259 262 264 266 268 269 270 272 274 276 277 279 281 283 284 286 287 289 291 292 292 294 296 297 299 302 305 304 304 305 307 304 301 304 308 309 311 313 312 313 315 316 320 320 316
213 214 216 218 219 220 222 223 224 225 226 227 228 229 231 232 232 233 234 237 238 236 235 237 238 238 240 242 243 244 246 247 249 251 252 253 254 256 258 259 261 263 265 266 268 270 271 272 274 276 277 278 280 281 282 284 286 287 288 290 291 292 294 296 299 300 300 298 298 300 301 301 299 298 300 303 306 309 309 309 311 310 313 317 316
215 216 218 220 221 222 224 225 226 227 227 229 230 231 233 234 235 236 237 239 240 240 239 238 239 241 242 244 244 246 248 248 250 251 252 255 256 258 259 261 263 266 268 269 270 273 273 273 275 276 276 277 279 280 282 283 285 286 287 289 290 291 292 293 294 295 294 294 295 297 298 299 299 298 298 298 299 303 305 305 306 305 306 311 312
216 218 220 222 223 224 225 226 227 228 229 230 232 234 235 236 237 238 239 241 242 242 243 242 241 242 244 246 246 247 248 248 250 252 253 256 258 258 259 263 266 268 270 270 271 272 273 273 275 276 277 277 277 279 281 282 284 285 287 288 288 289 291 291 291 292 293 293 295 296 296 296 296 296 297 296 295 298 300 300 300 301 302 304 306
220 221 223 224 225 226 227 228 229 229 230 231 232 235 237 239 240 240 241 242 243 243 245 245 244 243 244 246 248 249 249 249 250 252 255 257 259 260 261 264 268 269 270 270 271 272 273 274 275 276 277 278 276 276 279 280 282 283 284 286 286 288 289 290 291 292 292 292 293 294 295 295 295 295 294 295 295 297 298 297 292 291 295 298 299
222 223 225 226 227 227 228 230 230 231 231 232 233 235 238 240 242 243 243 244 244 244 245 246 246 246 245 247 249 251 251 251 250 252 255 258 260 261 263 265 268 270 271 271 272 273 274 275 276 276 276 276 275 275 277 278 280 281 282 284 284 286 287 289 291 291 292 292 292 293 295 295 296 297 296 296 296 295 296 297 291 287 291 295 295
223 225 226 227 228 228 228 229 231 232 232 234 235 237 239 241 242 244 244 244 245 246 246 246 247 248 248 249 252 252 251 251 253 254 256 259 260 263 265 267 268 270 272 273 273 273 274 275 277 277 275 275 276 277 278 278 278 279 281 282 283 284 285 287 288 289 290 292 292 293 295 295 296 299 299 298 297 295 295 294 291 288 290 293 293
225 227 228 229 229 228 228 229 231 233 235 236 237 239 240 241 242 243 245 245 246 247 247 246 247 249 249 251 255 254 252 253 257 257 258 260 261 263 266 268 269 271 272 273 274 275 276 276 278 279 277 275 276 277 277 278 278 278 279 281 281 282 283 284 286 287 288 289 289 289 292 293 296 298 298 297 296 294 293 290 284 283 287 289 290
227 229 230 231 230 230 231 232 234 236 237 237 239 241 242 242 243 243 244 245 245 246 247 247 247 248 250 251 253 254 254 256 258 258 260 262 263 265 267 269 271 271 272 273 274 276 276 276 278 279 278 275 277 279 278 277 278 278 278 279 280 280 280 281 283 284 285 286 286 286 287 290 292 294 294 294 293 291 289 287 282 282 285 286 286
228 230 231 232 232 232 233 234 236 238 238 239 240 242 243 244 244 244 243 244 245 246 246 246 246 248 250 250 250 252 254 256 258 260 262 264 266 267 268 270 271 272 273 274 275 275 276 276 276 278 277 276 279 282 281 279 279 278 279 280 280 280 279 279 280 282 282 283 284 285 285 287 289 290 290 291 291 289 286 284 283 283 283 281 280
229 231 232 234 235 234 235 236 237 238 239 239 240 241 243 243 244 245 244 244 245 245 246 246 247 248 250 250 249 252 254 256 259 262 264 266 268 269 269 270 271 272 273 275 275 276 277 276 277 278 278 278 280 281 281 279 279 278 279 280 281 281 280 280 280 281 281 282 283 283 284 286 287 287 287 287 287 285 283 281 281 283 282 278 277
231 232 234 235 236 236 236 237 238 239 239 240 241 242 243 245 245 245 245 245 245 244 245 246 248 249 250 250 250 252 255 258 260 263 266 268 269 269 269 270 271 272 273 274 275 276 277 277 278 278 278 279 280 281 281 279 278 278 279 279 280 281 281 281 281 282 283 283 283 282 282 284 285 285 285 284 283 282 281 279 279 281 280 278 278
232 234 235 237 238 239 239 239 239 240 241 243 244 245 245 245 246 246 245 245 245 246 247 248 249 251 252 251 250 251 255 259 262 264 266 268 268 268 268 269 270 271 272 273 275 277 278 278 278 278 278 279 280 281 280 279 279 278 278 278 278 280 281 281 283 284 285 285 285 284 282 283 283 283 283 283 282 281 279 278 277 276 276 278 279
235 237 238 240 240 241 241 240 240 241 243 245 246 247 247 247 247 248 247 247 248 248 249 250 249 250 251 251 250 251 255 259 262 264 266 268 268 267 267 268 269 270 272 274 275 277 278 278 278 278 279 280 280 281 281 281 279 277 277 278 278 279 280 281 282 284 285 286 287 286 285 283 282 282 282 280 280 279 277 276 275 273 273 276 277
238 240 241 242 243 243 243 243 243 244 247 248 249 250 250 249 249 250 250 250 250 249 249 250 249 249 250 251 252 254 256 259 263 265 267 268 267 267 268 269 270 271 273 274 275 276 277 278 279 280 280 282 283 283 283 281 280 278 277 277 278 279 279 281 282 283 284 285 286 285 285 283 283 283 281 279 278 276 274 273 274 273 272 273 273
239 241 243 245 246 246 247 249 249 249 250 250 250 250 250 250 250 251 251 250 250 248 248 250 250 249 250 252 255 256 257 260 263 265 267 268 268 267 268 269 271 272 273 274 275 276 276 278 279 281 282 284 286 286 285 283 281 280 279 279 279 280 281 282 284 284 284 284 285 285 285 284 285 284 281 278 276 273 270 271 274 273 271 268 269
240 242 243 245 247 249 251 253 254 252 251 250 250 250 250 250 250 251 251 250 249 248 248 249 250 251 253 255 256 257 258 259 262 265 267 269 269 268 268 269 271 272 272 273 275 276 277 277 279 281 284 285 286 287 287 286 284 282 281 281 281 282 283 285 285 285 284 284 284 285 285 286 286 284 280 276 273 269 268 271 273 273 269 265 266
238 240 241 244 247 250 252 254 254 252 250 249 250 250 250 249 249 249 249 249 249 249 249 249 248 251 254 255 255 256 257 258 260 263 266 268 269 269 270 270 271 271 271 273 275 275 277 278 279 282 284 286 286 287 288 288 287 285 285 284 284 285 286 286 286 286 286 285 284 284 285 286 285 282 278 274 269 266 267 269 272 273 268 264 266
232 233 234 237 241 244 247 246 246 247 245 243 243 246 247 245 245 246 247 248 248 247 245 243 243 248 253 255 255 255 255 257 260 263 265 267 269 270 271 272 273 273 273 274 274 275 276 278 280 282 285 286 287 287 288 288 288 288 288 287 287 287 287 287 287 288 288 287 287 287 287 286 284 280 276 270 264 263 266 269 271 272 269 265 266
213 213 214 215 215 220 226 226 224 229 233 229 226 228 234 236 237 242 244 243 241 239 236 236 241 248 253 254 254 255 256 259 263 265 267 268 269 270 272 273 274 274 274 273 273 274 277 279 281 283 285 287 288 287 288 289 289 290 290 289 288 289 289 289 289 289 289 289 289 289 288 287 285 281 274 267 263 264 268 272 272 271 269 268 269
193 196 198 197 194 196 194 187 186 194 204 202 200 205 215 224 232 242 244 240 237 234 234 239 247 251 253 254 256 258 259 261 264 266 267 268 268 268 270 272 272 272 272 272 273 274 277 279 280 282 284 286 287 288 288 288 289 291 291 290 290 290 291 292 292 291 291 290 289 289 287 285 284 281 274 268 266 268 270 272 271 270 270 272 274
188 192 196 195 194 194 192 187 183 186 193 187 184 195 211 222 232 248 255 248 241 237 237 244 251 252 254 256 257 258 260 262 263 263 265 265 265 266 269 271 271 271 271 272 274 276 277 278 279 280 282 284 286 287 287 288 288 289 291 291 292 293 293 293 293 293 291 289 288 288 286 283 282 279 273 270 270 271 270 269 269 270 273 275 278
190 193 196 199 202 204 206 211 217 224 230 221 210 218 228 229 237 253 264 264 254 240 235 242 248 250 252 255 255 255 258 260 260 261 265 269 269 269 270 271 271 271 272 273 274 276 277 277 278 279 280 283 286 287 287 288 287 288 290 291 292 293 293 292 292 292 291 288 287 286 285 284 281 278 274 272 272 272 271 269 269 272 275 277 278
182 188 193 198 204 207 210 216 224 232 238 236 232 234 234 231 237 255 264 265 262 252 243 244 247 248 251 254 256 258 260 262 264 267 271 274 275 275 276 276 275 275 275 276 277 277 277 277 279 280 281 282 284 284 286 288 289 289 289 289 289 290 291 291 291 291 291 290 288 286 285 283 280 277 275 274 274 274 273 271 272 273 275 275 275
173 180 186 191 197 202 206 210 215 222 225 229 235 237 238 243 251 264 272 268 261 255 248 247 249 253 257 261 263 264 267 270 273 274 275 276 277 278 279 279 279 279 279 279 279 279 278 277 278 279 280 280 280 281 283 287 288 287 288 288 288 288 288 289 289 289 289 289 288 287 285 283 280 278 277 276 276 276 274 274 274 275 274 274 273
169 173 178 184 190 198 204 210 217 223 227 235 244 249 254 261 263 266 268 268 265 262 258 257 260 264 268 271 272 274 276 279 281 280 280 281 281 281 281 281 281 280 281 281 281 279 278 278 278 279 280 281 281 282 284 286 286 286 287 287 288 287 287 287 287 287 286 286 286 286 284 283 281 280 279 278 278 277 276 276 276 275 275 274 274
176 179 183 190 199 208 215 223 232 241 247 254 260 264 268 272 273 273 272 271 273 274 273 272 274 276 277 279 281 282 283 284 284 285 285 284 284 283 283 284 283 282 282 283 282 281 281 281 280 281 282 283 283 284 285 285 286 286 286 287 288 287 287 286 285 285 285 284 284 284 283 282 282 280 279 279 279 279 278 278 277 276 276 275 275
199 205 211 217 223 230 236 245 253 258 262 266 270 275 278 281 283 284 282 281 281 282 282 281 281 282 282 283 284 285 285 286 287 287 286 286 285 285 285 285 284 284 284 283 283 283 283 283 283 284 284 284 284 285 285 285 286 286 286 286 287 287 286 286 285 285 284 284 284 283 283 283 282 281 280 280 280 279 279 278 278 277 276 275 275
222 230 237 243 249 254 258 264 267 270 272 274 275 278 280 282 285 287 288 287 287 286 287 287 286 286 286 285 285 285 285 287 288 288 287 286 285 285 285 285 284 283 283 283 283 284 284 283 283 284 283 283 284 285 285 285 286 286 286 285 285 286 285 285 284 284 284 283 283 282 282 281 281 280 280 279 278 278 277 277 277 276 276 275 275
245 250 254 259 263 266 268 271 274 276 278 279 278 279 280 281 282 284 286 287 287 287 287 287 286 287 287 286 286 286 286 287 287 287 287 287 286 286 286 286 285 284 284 283 284 284 283 283 283 284 284 285 285 285 285 285 285 285 285 285 285 285 285 285 284 284 284 283 283 282 282 281 280 280 279 278 278 277 277 277 277 276 276 275 275
261 262 265 268 271 274 276 278 280 281 283 283 283 283 284 284 284 284 284 285 285 286 286 286 287 287 287 287 287 287 287 287 288 288 288 288 288 287 286 286 286 285 285 285 285 285 284 284 284 284 285 285 285 285 285 285 285 285 285 285 284 284 285 285 285 284 284 283 283 282 282 282 281 280 280 279 278 277 276 276 276 276 276 276 276
264 268 272 274 276 278 280 282 284 285 285 285 285 286 287 287 286 286 286 285 285 285 285 285 286 287 287 288 288 287 287 288 288 288 288 288 288 288 287 286 286 285 284 285 285 285 285 284 284 284 284 284 284 284 284 284 284 285 285 284 284 284 284 284 283 283 284 283 283 283 282 281 281 280 280 279 278 277 276 276 276 275 275 275 275
264 269 274 276 278 280 281 282 285 286 286 286 287 287 287 288 288 288 288 288 288 289 287 286 286 287 288 288 288 288 288 289 289 289 289 289 289 288 287 287 287 286 284 284 284 284 284 285 284 284 284 284 284 284 284 283 284 284 283 283 283 284 283 283 282 283 283 282 282 282 282 281 280 280 280 278 278 277 276 276 276 276 276 276 276
266 270 273 276 278 280 280 282 286 287 286 287 288 288 289 290 290 290 290 290 291 292 290 288 288 289 288 288 288 289 290 290 290 290 290 289 289 288 287 287 287 286 285 285 285 285 285 284 284 284 284 284 284 284 283 283 283 283 283 283 283 283 283 283 282 282 282 281 281 281 281 280 280 280 279 279 278 277 277 276 276 276 276 276 276
268 271 274 277 279 281 282 284 287 288 288 288 290 291 291 292 292 292 292 292 292 292 292 291 291 291 290 289 289 290 291 291 291 291 289 288 288 288 287 287 286 285 285 285 285 285 285 284 283 283 283 284 284 283 283 283 283 283 283 282 282 282 282 281 281 282 281 280 280 280 280 280 279 279 279 278 278 277 277 276 276 276 275 275 275
272 277 281 282 282 284 286 288 289 290 291 292 293 293 294 294 295 295 295 294 294 294 293 293 293 293 292 292 291 292 292 292 292 292 290 289 288 288 288 287 286 286 285 285 285 285 285 284 284 283 283 283 283 283 283 282 282 282 282 281 280 280 280 280 280 280 280 280 280 280 279 279 279 279 279 278 277 276 276 276 275 275 275 274 274
273 278 284 286 285 286 288 289 290 292 294 294 295 295 295 296 296 296 296 295 295 295 295 294 294 293 293 294 294 294 294 294 293 293 292 291 290 289 289 288 287 287 287 286 286 285 285 285 285 285 284 284 284 283 283 282 282 282 281 281 280 280 280 279 279 279 279 278 279 279 279 278 279 278 278 277 276 276 275 275 275 275 274 274 274
275 278 283 286 287 287 289 291 292 294 295 295 295 296 297 297 297 296 296 296 296 296 295 295 295 295 294 295 296 296 295 294 293 292 291 291 290 290 289 288 288 287 287 286 286 286 286 286 286 286 286 286 285 285 285 284 284 283 282 283 283 282 281 280 280 280 279 279 279 278 278 277 277 277 276 276 276 275 275 275 274 275 274 274 274
279 282 285 288 290 290 291 293 295 295 296 296 297 298 298 298 298 297 297 297 297 297 297 296 296 295 295 295 296 296 295 294 293 292 291 291 291 291 290 289 288 287 287 287 287 286 286 286 287 287 287 288 287 286 286 287 286 285 284 284 283 282 281 281 280 279 279 280 279 278 278 277 276 276 275 275 275 275 274 274 274 274 274 274 274
284 286 288 290 292 293 294 295 296 297 298 299 299 299 300 300 299 299 299 298 298 298 298 298 297 297 296 296 296 296 296 295 294 293 293 292 292 291 291 290 289 288 287 287 287 287 286 287 287 288 288 288 288 288 287 287 287 286 285 284 283 282 282 281 280 278 278 279 278 278 278 278 276 275 275 274 274 274 274 274 274 274 274 275 275
286 288 289 290 292 293 294 296 297 298 299 299 299 300 301 301 301 300 300 300 300 300 300 299 299 299 298 297 297 296 296 295 295 295 294 293 292 291 291 290 289 289 288 287 287 287 287 287 287 288 288 289 289 289 289 288 287 285 284 283 284 283 282 281 280 279 278 278 278 278 278 277 276 276 275 274 274 274 274 274 274 275 275 275 275
288 289 289 291 292 293 295 296 298 299 300 301 301 302 303 303 303 303 302 302 302 302 301 301 300 300 299 298 298 297 297 296 296 295 294 293 292 291 290 289 289 288 288 287 287 287 287 287 287 288 288 289 290 290 290 290 289 287 284 282 283 283 281 280 281 280 280 279 279 278 278 277 276 276 275 275 275 274 274 274 274 274 275 275 275
290 291 292 292 293 294 296 298 299 301 302 303 304 305 304 305 305 304 304 304 304 304 303 302 302 301 300 300 299 299 298 297 296 296 295 294 293 291 290 289 289 289 288 288 288 287 287 288 288 288 288 289 289 290 291 291 290 289 286 284 283 282 282 282 282 282 282 280 279 278 277 277 276 275 275 275 275 274 274 274 274 274 274 275 275
292 293 294 294 294 295 297 298 300 301 302 303 304 304 305 306 306 306 306 306 306 305 304 304 304 303 302 302 302 301 300 298 297 296 295 294 293 292 290 290 289 289 289 289 288 288 288 288 288 288 289 290 290 291 291 291 289 288 287 285 283 283 284 284 283 282 282 281 280 278 277 277 276 276 276 275 275 275 275 275 275 275 275 275 275
293 293 294 295 296 298 299 301 302 302 303 304 305 306 307 307 307 307 307 307 307 306 306 305 305 305 304 304 304 303 301 300 298 296 295 294 293 292 291 291 290 290 289 289 289 289 289 289 289 290 290 291 292 292 292 291 289 287 286 285 284 284 284 284 284 283 282 281 280 278 277 276 277 278 277 277 276 276 276 276 276 276 276 276 276
294 295 296 297 298 300 302 303 303 303 305 306 307 308 309 309 309 309 309 308 307 307 307 307 307 306 306 306 305 304 302 300 299 297 296 295 294 293 292 292 291 290 290 290 290 289 290 290 291 292 292 293 293 292 291 290 288 286 286 287 287 287 287 287 286 285 284 282 281 279 278 278 279 280 280 279 278 278 277 277 277 277 277 277 278
295 296 297 298 300 302 303 304 304 305 306 307 308 309 310 310 310 310 310 309 309 309 309 309 308 308 307 305 304 303 302 301 300 299 297 296 295 294 293 293 292 291 290 291 291 291 291 292 293 294 294 294 293 292 291 290 287 286 286 287 288 289 289 289 288 286 285 284 283 281 280 280 281 281 280 280 280 281 281 280 280 280 281 281 281
295 297 298 300 302 303 304 305 305 306 308 308 309 310 311 311 311 311 311 310 310 310 310 310 310 309 307 305 304 303 302 302 301 300 298 297 296 295 294 294 293 292 292 293 293 293 294 295 296 296 295 294 293 293 292 290 288 287 286 286 286 288 290 291 289 286 286 287 284 281 280 280 281 282 281 281 281 281 281 281 281 282 282 283 284